User: anonymous
Location: Stillwell
(40.4602°N, 82.0928°W)
Time: 20:10:21
(UTC-04:00)
Language:

Cosmos 2333 Rocket - Orbit

View from above orbital plane
View from above orbital plane
View from above satellite
View from above satellite

Ground track
Ground track

The orbit data is extracted from the following two-line orbital elements,

1 24298U 96051B   14263.90846060 -.00000129  00000-0 -43567-4 0  5567
2 24298 070.8652 010.3779 0018015 234.9668 263.6626 14.12461445930583
Epoch (UTC): 20 September 2014 21:48:10
Eccentricity: 0.0018015
inclination: 70.8652°
perigee height: 838 km
apogee height: 864 km
right ascension of ascending node: 10.3779°
argument of perigee: 234.9668°
revolutions per day: 14.12461445
mean anomaly at epoch: 263.6626°
orbit number at epoch: 93058

The dashed part of the orbit path shows where the satellite is in the earth's shadow,  

DLR